{"data":{"norad_id":38736,"epoch":"2026-09-20T04:15:00.741888Z","epoch_age_seconds":57046,"freshness":"FRESH","line1":"1 38736U 12041D   26263.17709192  .00000107  00000+0  69293-3 0  9999","line2":"2 38736  82.4844  11.4469 0025131 203.5106 156.4827 12.43907611634766","mean_motion":12.43907611,"eccentricity":0.0025131,"inclination_deg":82.4844,"raan_deg":11.4469,"arg_perigee_deg":203.5106,"mean_anomaly_deg":156.4827,"bstar":0.00069293,"rev_number":63476,"period_min":115.7642245506,"perigee_km":1470.3081120047,"apogee_km":1509.855352998,"semimajor_km":7868.2187325014,"source":"CELESTRAK","updated_at":"2026-09-20T09:00:13.862349Z"}}